Powrót do katalogu

STARLINK-33650

AktywnyŁącznośćVLEO
NORAD 63321·PAYLOAD·🇺🇸 United States

Wystrzelony Mar 18, 2025 z Cape Canaveral Space Force Station

Loading…

Następne Przeloty (najbliższe 24 godziny)

TLE

ŚwieżeSource: CelesTrak SupGP

Epoka: Sep 15, 2026, 03:10 UTC

1 63321C 25057Q   26258.13243056 -.00021364  00000+0 -77380-3 0  2584
2 63321  43.0032  40.7534 0001723 270.3644  59.2463 15.27589460    18

Śledź STARLINK-33650 w czasie rzeczywistym z AllMySat

Download on the App Store